Probability
87 84 87 81 68 61 55 52 48 45 42 42 39 39 39 32 26 26 26 29 16 16 13 10 3 0 0 0 0 0 0 0 0 0 0 0 0 0 0 0 0 0 3
90 84 84 81 68 58 52 48 45 39 39 39 39 39 32 19 19 23 23 23 16 13 16 10 6 3 0 0 0 0 0 0 0 0 0 0 0 0 0 3 3 0 0
87 77 77 74 68 65 61 58 48 39 35 39 35 23 19 19 19 19 19 16 13 13 10 10 6 3 3 3 0 0 0 0 0 0 0 0 0 0 0 0 0 0 0
87 81 77 77 74 68 61 61 55 52 45 42 26 23 19 19 19 19 23 16 10 6 6 6 6 0 0 0 0 3 3 0 0 0 0 0 0 0 0 0 0 0 0
90 81 81 77 61 61 55 58 48 52 48 29 26 26 19 19 19 19 19 16 13 13 10 6 6 3 3 0 3 0 0 0 0 0 0 0 0 0 0 0 0 0 0
84 84 74 68 61 61 55 45 45 48 32 23 23 23 23 23 13 10 10 10 6 6 6 6 3 0 3 0 0 0 0 0 0 0 0 0 0 0 0 0 0 0 0
81 77 77 61 65 68 58 55 48 42 35 29 26 26 26 16 13 10 0 6 6 6 6 6 3 3 3 3 0 0 0 0 0 0 0 0 0 0 0 0 0 0 0
71 71 71 68 65 61 61 55 48 39 29 29 29 23 23 13 10 3 0 0 0 6 6 3 3 3 3 3 3 0 0 0 0 0 0 0 0 0 0 0 0 0 0
68 68 65 61 55 55 48 42 48 42 23 23 23 23 13 13 13 6 0 0 3 3 3 3 3 3 3 0 0 0 0 0 0 0 0 0 0 0 0 0 0 0 0
74 65 61 61 58 55 45 45 42 39 39 29 26 13 13 13 6 3 0 0 3 3 3 3 0 0 0 0 0 0 0 0 0 0 0 0 0 0 0 0 0 0 0
68 61 55 52 52 48 45 42 35 32 29 23 16 13 10 6 3 0 0 0 3 3 3 3 3 0 0 0 0 0 0 0 0 0 0 0 0 0 0 0 0 0 0
58 58 52 48 45 35 35 32 32 29 29 29 19 13 10 6 3 0 0 0 0 0 0 0 0 0 0 0 0 0 0 0 0 0 0 0 0 0 0 0 0 0 0
48 39 42 42 35 32 35 32 29 26 32 23 19 13 10 3 3 3 0 0 0 0 0 0 0 0 0 0 0 0 0 0 0 0 0 0 0 0 0 0 0 0 0
35 32 26 29 26 23 19 19 19 19 23 16 16 10 10 3 3 0 0 0 0 0 0 0 0 0 0 0 0 0 0 0 0 0 0 0 0 0 0 0 0 0 0
32 29 23 19 23 19 16 16 16 16 16 16 13 6 10 10 3 0 0 0 0 0 0 0 0 0 0 0 0 0 0 0 0 0 0 0 0 0 0 0 0 0 0
26 29 16 13 16 13 10 6 0 3 6 3 3 0 0 0 0 0 0 0 0 0 0 0 0 0 0 0 0 0 0 0 0 0 0 0 0 0 0 0 0 0 0
23 23 26 23 13 13 10 6 0 0 0 0 0 0 0 0 0 0 0 0 0 0 0 0 0 0 0 0 0 0 0 0 0 0 0 0 0 0 0 0 0 0 0
23 23 23 19 23 16 10 6 3 0 0 0 0 0 0 0 0 0 0 0 0 0 0 0 0 0 0 0 0 0 0 0 0 0 0 0 0 0 0 0 0 0 0
16 16 16 13 16 13 10 6 3 0 0 0 0 0 0 0 0 0 0 0 0 0 0 0 0 0 0 0 0 0 0 0 0 0 0 0 0 0 0 0 0 0 0
16 13 16 13 13 10 6 3 3 0 0 0 0 0 0 0 0 0 0 0 0 0 0 0 0 0 0 0 0 0 0 0 0 0 0 0 0 0 0 0 0 0 0
13 3 6 10 6 6 3 3 3 3 3 0 0 0 0 0 0 0 0 0 0 0 0 0 0 0 0 0 0 0 0 0 0 0 0 0 0 0 0 0 0 0 0
6 3 6 6 6 6 6 3 3 3 3 0 0 0 0 0 0 0 0 0 0 0 0 0 0 0 0 0 0 0 0 0 0 0 0 0 0 0 0 0 0 0 0
0 0 0 0 3 6 6 3 3 3 3 0 0 0 0 0 0 0 0 0 0 0 0 0 0 0 0 0 0 0 0 0 0 0 0 0 0 0 0 0 0 0 0
0 0 0 0 0 3 0 0 0 0 0 0 0 0 0 0 0 0 0 0 0 0 0 0 0 0 0 0 0 0 0 0 0 0 0 0 0 0 0 0 0 0 0
0 0 0 0 0 0 0 0 0 0 0 0 0 0 0 0 0 0 0 0 0 0 0 0 0 0 0 0 0 0 0 0 0 0 0 0 0 0 0 0 0 0 0
0 0 0 0 0 0 0 0 0 0 0 0 0 0 0 0 0 0 0 0 0 0 0 0 0 0 0 0 0 0 0 0 0 0 0 0 0 0 0 0 0 0 0
Height
5911 5908 5906 5904 5902 5899 5897 5895 5893 5891 5889 5887 5885 5883 5881 5878 5876 5874 5873 5871 5869 5867 5865 5864 5863 5861 5860 5859 5858 5857 5855 5855 5854 5853 5851 5850 5849 5848 5847 5846 5845 5844 5843
5909 5907 5905 5903 5900 5898 5896 5894 5892 5889 5887 5885 5882 5880 5878 5875 5873 5871 5869 5868 5866 5864 5861 5860 5858 5856 5855 5854 5853 5851 5850 5849 5848 5847 5845 5844 5843 5842 5841 5840 5839 5838 5837
5907 5905 5903 5901 5899 5896 5894 5892 5890 5887 5885 5882 5880 5877 5875 5873 5870 5868 5866 5864 5862 5859 5857 5855 5853 5851 5850 5849 5847 5845 5844 5843 5842 5841 5839 5838 5837 5835 5834 5833 5832 5831 5830
5904 5902 5900 5898 5896 5893 5891 5889 5886 5884 5882 5880 5877 5875 5872 5870 5867 5864 5862 5860 5857 5855 5853 5850 5848 5846 5844 5843 5841 5839 5838 5836 5835 5834 5833 5832 5830 5829 5828 5826 5825 5823 5822
5900 5899 5897 5895 5892 5890 5887 5884 5882 5880 5878 5876 5874 5871 5869 5866 5863 5860 5858 5855 5853 5850 5848 5846 5843 5841 5839 5837 5835 5834 5832 5830 5828 5827 5826 5825 5823 5822 5820 5819 5817 5816 5814
5896 5894 5893 5891 5889 5886 5883 5880 5878 5876 5874 5872 5870 5867 5864 5862 5859 5856 5853 5850 5847 5845 5843 5840 5838 5835 5833 5831 5830 5828 5826 5824 5822 5820 5819 5817 5816 5814 5813 5811 5809 5808 5807
5890 5889 5888 5886 5883 5880 5877 5875 5874 5873 5870 5868 5865 5863 5860 5857 5854 5850 5847 5845 5842 5839 5837 5834 5832 5829 5827 5825 5823 5821 5819 5817 5816 5814 5812 5810 5809 5807 5805 5804 5802 5800 5799
5885 5883 5881 5880 5878 5874 5872 5871 5870 5868 5865 5863 5860 5858 5855 5851 5848 5845 5842 5839 5836 5833 5830 5828 5825 5823 5821 5818 5816 5814 5812 5810 5808 5806 5805 5803 5801 5799 5797 5795 5793 5792 5790
5878 5876 5874 5873 5871 5869 5867 5866 5864 5861 5859 5857 5855 5851 5848 5845 5842 5839 5835 5832 5829 5827 5824 5821 5818 5816 5814 5811 5809 5807 5805 5803 5800 5798 5796 5794 5792 5790 5788 5787 5785 5783 5781
5871 5869 5868 5867 5864 5862 5860 5859 5857 5855 5853 5850 5848 5845 5841 5838 5835 5831 5828 5826 5823 5820 5817 5814 5811 5808 5806 5803 5801 5799 5797 5795 5793 5791 5789 5786 5784 5782 5779 5778 5776 5774 5772
5862 5861 5860 5858 5856 5854 5852 5851 5849 5847 5845 5843 5840 5837 5834 5831 5828 5824 5821 5818 5815 5812 5810 5806 5803 5800 5798 5796 5793 5791 5789 5787 5785 5783 5781 5778 5776 5774 5771 5769 5767 5765 5763
5853 5852 5850 5849 5848 5846 5844 5843 5841 5839 5837 5834 5832 5829 5826 5823 5820 5816 5813 5811 5808 5805 5802 5799 5796 5793 5790 5788 5786 5783 5781 5779 5777 5774 5772 5770 5768 5765 5763 5760 5758 5755 5753
5844 5842 5840 5839 5838 5837 5835 5833 5832 5830 5828 5825 5823 5820 5817 5814 5811 5808 5805 5802 5799 5796 5793 5791 5788 5785 5782 5780 5777 5775 5772 5770 5768 5766 5763 5761 5758 5756 5753 5751 5748 5746 5743
5834 5832 5830 5830 5828 5826 5824 5823 5822 5820 5818 5816 5813 5811 5808 5805 5802 5799 5796 5793 5790 5787 5785 5782 5779 5776 5774 5771 5769 5766 5763 5761 5758 5756 5754 5751 5749 5746 5743 5741 5738 5736 5734
5824 5823 5821 5820 5819 5817 5815 5814 5812 5810 5808 5806 5804 5801 5799 5796 5793 5791 5787 5784 5781 5779 5776 5773 5770 5768 5765 5762 5760 5757 5754 5751 5749 5746 5744 5741 5739 5736 5733 5731 5728 5726 5723
5813 5812 5811 5810 5809 5807 5805 5804 5801 5799 5797 5795 5793 5791 5789 5786 5783 5781 5778 5775 5772 5769 5766 5763 5761 5758 5755 5753 5750 5747 5744 5742 5739 5736 5734 5731 5728 5725 5723 5720 5717 5715 5712
5801 5801 5800 5799 5798 5797 5795 5793 5791 5789 5787 5785 5782 5780 5778 5775 5773 5770 5767 5764 5761 5759 5756 5753 5750 5748 5745 5742 5739 5737 5734 5731 5728 5726 5723 5720 5718 5715 5712 5709 5706 5703 5700
5790 5789 5789 5788 5787 5786 5784 5782 5780 5778 5776 5774 5771 5769 5766 5764 5762 5759 5756 5753 5750 5747 5745 5742 5739 5736 5734 5731 5728 5725 5722 5720 5717 5715 5712 5709 5706 5703 5700 5697 5694 5691 5688
5777 5777 5777 5776 5775 5774 5772 5771 5769 5767 5765 5763 5760 5757 5755 5752 5750 5747 5744 5742 5739 5736 5733 5731 5728 5725 5722 5720 5717 5714 5711 5708 5705 5703 5700 5697 5694 5691 5688 5685 5682 5679 5676
5766 5766 5765 5764 5763 5762 5761 5759 5758 5756 5753 5751 5749 5746 5743 5741 5738 5735 5733 5730 5727 5725 5722 5719 5716 5713 5711 5708 5705 5702 5699 5697 5694 5691 5688 5685 5682 5679 5676 5673 5670 5667 5663
5755 5754 5753 5753 5752 5751 5749 5747 5746 5744 5741 5739 5736 5733 5731 5729 5726 5724 5721 5719 5716 5713 5710 5707 5705 5702 5699 5696 5693 5690 5687 5685 5682 5679 5676 5672 5669 5666 5663 5660 5657 5653 5651
5744 5743 5743 5742 5741 5740 5738 5736 5734 5732 5730 5727 5725 5722 5720 5717 5715 5712 5710 5707 5704 5702 5699 5696 5693 5690 5687 5685 5682 5679 5675 5672 5669 5666 5663 5660 5656 5653 5650 5647 5644 5641 5638
5732 5732 5731 5730 5729 5728 5726 5724 5722 5720 5718 5716 5714 5711 5709 5706 5704 5701 5698 5696 5693 5691 5688 5684 5682 5679 5676 5673 5670 5667 5664 5661 5657 5654 5651 5647 5644 5641 5637 5634 5631 5628 5625
5721 5720 5719 5718 5717 5716 5715 5713 5711 5709 5707 5705 5703 5700 5698 5695 5692 5690 5687 5685 5682 5679 5676 5673 5670 5667 5664 5661 5658 5655 5652 5649 5645 5642 5639 5635 5632 5628 5625 5622 5618 5615 5613
5709 5709 5708 5707 5706 5705 5703 5702 5700 5698 5697 5694 5692 5690 5687 5685 5682 5679 5677 5674 5671 5668 5665 5662 5659 5656 5653 5650 5647 5643 5640 5637 5633 5630 5626 5623 5620 5616 5613 5610 5606 5603 5600
5700 5699 5698 5697 5695 5694 5693 5692 5690 5688 5686 5684 5682 5679 5677 5674 5671 5669 5666 5663 5660 5657 5654 5651 5648 5645 5642 5639 5636 5632 5629 5625 5621 5618 5614 5611 5607 5604 5601 5597 5594 5591 5588
Wind_Speed
11 12 12 12 12 12 12 11 11 11 12 12 12 13 13 13 12 12 12 13 14 14 14 15 17 17 17 18 19 19 19 19 19 20 22 21 21 22 23 23 24 24 25
11 12 12 12 12 12 13 13 13 14 14 14 14 14 14 14 14 13 13 14 15 16 16 16 17 18 18 19 20 20 20 20 20 21 22 23 23 23 23 24 24 25 26
12 13 13 13 13 14 14 14 14 15 15 15 15 15 15 15 15 15 15 15 16 17 17 18 18 18 19 20 21 21 22 22 21 21 22 23 24 24 24 24 25 26 27
14 14 15 15 15 16 16 16 15 15 16 16 16 17 17 17 17 17 17 17 17 18 18 18 19 19 20 20 21 22 22 22 23 23 23 23 24 24 24 25 26 26 27
15 16 17 17 18 18 18 17 16 16 17 16 17 18 18 19 19 20 20 19 19 20 20 20 20 20 20 21 21 21 22 22 23 23 24 24 25 25 25 26 26 26 27
17 18 18 19 20 20 20 20 18 18 18 18 18 20 20 21 21 21 21 21 20 21 21 22 22 21 21 21 21 22 22 22 23 24 24 25 25 26 26 26 26 26 27
20 20 20 22 23 23 21 21 22 21 21 21 21 22 22 23 23 22 22 22 22 22 23 23 23 23 23 23 23 23 23 24 24 25 25 25 26 26 27 27 27 27 28
23 24 23 24 25 23 24 24 24 25 24 24 24 25 25 25 25 25 25 25 25 25 24 24 25 25 24 24 24 24 24 24 25 25 26 27 28 28 29 29 29 29 30
26 26 26 26 27 27 27 27 27 26 26 26 27 28 28 28 28 27 27 27 27 27 26 26 25 26 26 26 26 26 25 26 26 26 26 27 28 29 29 30 30 31 31
28 29 28 28 29 29 29 29 29 28 28 28 29 31 30 31 31 29 28 28 28 28 27 27 27 27 27 27 27 27 27 27 27 27 28 28 28 29 30 30 30 31 32
30 31 31 30 30 31 31 31 31 30 30 31 32 33 32 32 32 31 30 30 29 28 28 27 27 27 27 27 27 28 28 28 28 29 29 29 29 29 30 30 30 30 31
33 33 33 32 32 33 32 33 32 32 32 33 34 34 34 34 33 33 32 31 31 30 29 28 27 27 27 27 28 28 29 29 30 30 30 30 30 30 31 32 32 32 32
34 34 33 33 33 34 34 34 34 34 35 35 36 35 35 34 34 33 32 32 32 31 29 28 28 28 28 28 29 29 30 30 31 31 31 31 31 31 31 32 33 33 33
35 36 35 35 35 35 36 35 35 36 36 37 36 36 36 36 35 34 33 33 33 32 31 31 30 29 29 29 29 30 31 31 32 32 32 33 33 33 33 33 33 34 34
36 37 36 36 36 37 37 37 37 37 38 37 37 37 37 36 36 35 35 34 34 33 33 33 32 31 31 31 31 32 32 33 33 33 33 33 34 34 34 34 34 34 35
38 38 38 38 38 38 39 39 39 39 39 38 38 38 37 37 37 36 36 35 35 35 34 34 34 34 34 34 33 34 34 33 33 34 34 34 34 35 35 35 35 36 37
39 39 39 39 39 39 39 40 39 39 39 39 39 39 38 38 38 38 37 37 37 36 36 36 35 35 36 35 35 35 35 35 35 35 35 35 35 36 37 37 37 38 38
39 39 40 40 40 40 40 39 39 38 39 39 39 39 39 38 38 38 38 38 37 37 37 36 37 37 37 36 36 36 36 36 36 36 36 37 37 37 38 38 39 39 39
41 40 41 40 40 40 40 39 39 39 39 39 39 39 39 39 39 39 38 38 37 37 36 37 37 37 37 37 37 37 36 36 37 37 38 38 39 39 39 39 39 39 39
41 41 40 40 40 40 40 39 40 39 39 40 40 40 39 39 39 39 38 38 37 37 37 37 37 38 37 37 37 37 37 37 37 38 38 39 39 40 40 40 40 40 40
39 39 39 39 38 38 39 39 39 39 39 39 40 40 40 39 39 39 38 37 37 37 37 37 37 37 37 37 38 38 38 38 38 39 39 39 39 40 40 40 40 40 40
39 40 39 38 38 38 39 39 38 39 39 39 39 38 38 37 37 37 37 37 36 36 36 37 37 37 37 38 38 37 38 38 38 39 39 39 39 40 40 40 40 39 39
39 39 39 38 38 38 39 39 38 38 38 38 38 37 37 36 36 36 36 36 36 36 36 36 36 36 37 37 37 37 38 38 38 39 39 39 40 40 40 39 39 39 38
37 37 37 37 37 37 38 37 37 37 36 36 36 36 36 35 35 35 35 35 36 36 36 36 37 37 37 37 37 37 38 38 38 38 39 39 39 39 38 39 38 38 38
34 35 35 36 36 35 35 35 34 34 34 34 34 34 34 34 34 34 35 35 35 35 35 35 36 36 36 36 37 37 38 39 39 39 39 39 39 38 38 38 38 37 37
31 31 31 31 31 31 32 32 32 32 32 32 33 32 33 33 34 34 34 34 34 34 34 34 35 34 35 35 36 37 38 38 38 38 38 37 37 37 37 37 37 37 37
Wind_Direction
352 354 356 357 356 355 355 350 347 344 341 340 337 334 332 327 320 314 310 305 303 301 294 285 279 277 280 281 280 275 272 272 272 273 273 274 274 272 274 273 273 273 275
340 342 343 346 346 344 343 342 340 339 337 335 333 331 329 327 322 316 312 308 305 303 300 296 292 284 282 282 283 280 275 273 272 272 273 274 274 274 273 274 274 276 277
329 332 332 333 333 333 332 333 335 336 336 334 334 333 331 329 325 321 316 310 308 306 303 299 296 294 290 285 283 281 279 276 274 274 275 275 275 277 275 275 277 278 279
319 322 323 323 323 322 322 324 325 328 330 329 328 329 327 327 326 322 319 314 309 306 304 301 299 295 292 288 286 284 281 281 279 276 276 278 278 280 280 279 279 280 280
308 310 312 313 315 317 315 316 316 320 324 326 326 326 325 324 322 320 316 312 308 305 303 301 299 297 293 289 288 287 286 284 282 279 278 277 279 281 281 281 281 280 280
299 301 303 305 306 307 307 310 313 316 317 319 322 325 323 321 319 317 314 310 308 306 303 301 298 299 297 294 291 290 289 287 286 284 281 279 280 282 282 282 282 281 281
296 295 296 299 302 303 304 305 310 314 319 318 318 319 321 320 316 314 313 310 307 305 303 301 298 297 297 296 294 292 289 287 287 287 285 281 281 282 282 282 281 280 282
289 288 290 293 296 299 300 302 304 307 312 313 314 315 315 315 314 312 310 309 306 303 302 301 299 297 295 295 295 294 291 289 288 288 288 286 283 282 283 283 283 283 282
287 288 289 290 291 295 299 302 302 301 304 307 308 310 311 312 310 309 308 306 306 304 303 302 300 297 295 295 295 295 294 292 290 289 290 289 287 284 284 284 284 284 284
282 283 284 286 288 292 295 295 297 298 301 303 305 308 308 308 308 305 306 305 305 304 303 301 299 298 296 293 292 293 294 293 292 292 292 291 289 287 286 286 286 287 287
280 281 281 283 285 287 291 293 295 296 297 300 302 305 306 307 307 306 306 306 306 304 303 302 301 298 296 293 291 291 291 292 292 292 292 292 290 289 288 288 288 289 289
278 280 280 282 285 287 290 292 293 294 294 297 300 302 304 305 305 304 304 305 306 304 303 303 302 301 296 294 292 290 290 290 291 292 292 291 290 288 288 288 288 288 289
277 278 278 281 284 286 288 288 290 292 294 296 297 299 300 301 303 303 302 303 304 304 302 301 301 300 298 296 294 292 291 291 292 292 291 291 290 290 289 288 288 287 288
277 280 280 280 281 283 286 286 288 291 292 294 295 296 298 298 299 300 300 301 302 301 300 299 299 298 297 296 296 295 293 292 292 292 291 291 290 290 290 289 289 290 289
275 277 278 279 281 283 287 287 288 289 290 292 293 294 295 296 296 296 297 297 298 299 298 297 297 297 297 297 296 296 295 294 293 292 291 291 290 290 290 289 289 290 289
275 277 278 280 282 283 285 287 288 288 289 289 290 292 293 293 293 293 294 294 295 295 295 296 296 295 295 295 295 295 294 293 293 292 291 290 290 290 289 289 289 289 289
275 276 278 280 283 284 285 285 287 288 289 290 291 291 291 291 291 291 292 293 294 294 294 293 293 293 293 294 294 294 293 292 292 292 292 291 290 290 290 289 289 289 289
274 276 278 279 281 283 285 286 287 289 289 289 291 292 290 290 290 290 291 292 293 293 293 293 292 292 292 293 293 293 292 291 291 291 290 290 289 290 289 289 289 289 290
275 276 277 279 281 282 283 284 286 287 288 289 289 291 289 288 289 290 291 292 293 293 293 293 293 292 292 293 293 292 291 291 291 291 290 290 289 289 289 289 289 289 289
275 276 276 277 279 281 283 284 284 285 287 288 289 289 289 289 290 290 292 293 292 293 293 292 291 291 291 291 291 291 292 292 291 291 291 291 290 290 289 289 288 288 288
274 275 276 277 278 280 283 284 284 286 288 289 291 289 289 290 291 292 292 292 293 293 293 292 291 291 291 291 291 291 292 292 291 291 292 292 291 290 290 290 289 289 289
272 273 275 276 278 280 283 284 284 285 287 288 289 290 291 291 292 292 293 293 293 294 293 293 293 293 292 292 292 292 292 292 293 293 293 292 292 292 292 291 290 290 289
272 273 274 276 278 279 281 282 284 286 287 288 290 291 292 293 293 292 293 293 293 292 292 293 293 294 294 293 293 293 293 293 294 294 294 293 293 293 293 293 292 291 290
273 274 275 277 278 279 281 282 284 285 287 288 290 291 292 292 292 292 293 293 292 292 292 292 293 293 293 294 294 294 295 294 294 295 294 294 294 294 294 294 293 291 290
272 273 274 275 276 278 281 283 285 286 288 289 291 291 292 292 292 292 292 292 292 292 293 293 293 293 294 295 295 295 295 294 295 295 295 295 295 294 295 294 294 293 291
276 276 276 278 278 279 282 284 286 288 289 290 291 292 292 292 293 293 293 293 293 292 292 293 294 295 296 296 297 297 297 297 297 296 296 296 296 296 296 295 293 292 291